| time (UTC) | temp F | wind direction | speed MPH | gust MPH | rain 1hr in | rain 24hr in | rain mn in | humidity % | barometer mb |
| 20260502163045 | 53 | 180 | 1.0 | 6.0 | 0.00 | 0.00 | 0.00 | 39 | 1010.0 |
| 20260502161550 | 52 | 159 | 0.0 | 9.0 | 0.00 | 0.00 | 0.00 | 39 | 1010.4 |
| 20260502151541 | 53 | 239 | 0.0 | 6.0 | 0.00 | 0.01 | 0.00 | 42 | 1010.9 |
| 20260502123012 | 41 | 279 | 1.0 | 6.0 | 0.00 | 0.07 | 0.00 | 70 | 1011.1 |
| 20260502121506 | 40 | 274 | 0.0 | 5.0 | 0.00 | 0.07 | 0.00 | 72 | 1011.2 |
| 20260502114504 | 38 | 275 | 0.0 | 0.0 | 0.00 | 0.11 | 0.00 | 76 | 1010.9 |
| 20260502113003 | 37 | 227 | 0.0 | 5.0 | 0.00 | 0.11 | 0.00 | 78 | 1011.0 |
| 20260502111501 | 36 | 223 | 0.0 | 0.0 | 0.00 | 0.11 | 0.00 | 79 | 1010.9 |
| 20260502110059 | 35 | 244 | 0.0 | 0.0 | 0.00 | 0.14 | 0.00 | 81 | 1010.7 |
| 20260502104557 | 35 | 240 | 0.0 | 4.0 | 0.00 | 0.14 | 0.00 | 82 | 1010.6 |
| 20260502103056 | 34 | 214 | 0.0 | 0.0 | 0.00 | 0.14 | 0.00 | 82 | 1010.5 |
| 20260502101615 | 34 | 254 | 0.0 | 0.0 | 0.00 | 0.14 | 0.00 | 83 | 1010.4 |
| 20260502100109 | 34 | 254 | 0.0 | 0.0 | 0.00 | 0.17 | 0.00 | 83 | 1010.3 |
| 20260502071531 | 38 | 247 | 0.0 | 0.0 | 0.00 | 0.22 | 0.00 | 80 | 1008.7 |
| 20260502070034 | 38 | 235 | 0.0 | 0.0 | 0.00 | 0.23 | 0.00 | 79 | 1008.7 |
| 20260502064541 | 38 | 252 | 0.0 | 0.0 | 0.00 | 0.23 | 0.00 | 79 | 1008.4 |
| 20260502063027 | 38 | 262 | 0.0 | 0.0 | 0.00 | 0.23 | 0.00 | 78 | 1008.3 |
| 20260502061527 | 38 | 262 | 0.0 | 0.0 | 0.00 | 0.23 | 0.00 | 78 | 1008.1 |
| 20260502060033 | 38 | 262 | 0.0 | 0.0 | 0.00 | 0.28 | 0.00 | 78 | 1008.0 |
| 20260502054526 | 38 | 262 | 0.0 | 0.0 | 0.00 | 0.28 | 0.00 | 77 | 1007.9 |
| 20260502053019 | 39 | 262 | 0.0 | 0.0 | 0.00 | 0.28 | 0.00 | 74 | 1007.7 |
| 20260502051616 | 40 | 282 | 0.0 | 0.0 | 0.00 | 0.28 | 0.00 | 73 | 1007.7 |
| 20260502050020 | 40 | 279 | 0.0 | 5.0 | 0.00 | 0.30 | 0.00 | 72 | 1007.9 |
| 20260502044513 | 40 | 281 | 2.0 | 6.0 | 0.00 | 0.30 | 0.00 | 71 | 1007.9 |
| 20260502043011 | 41 | 275 | 0.0 | 12.0 | 0.00 | 0.30 | 0.00 | 71 | 1007.8 |
| 20260502041509 | 41 | 258 | 1.0 | 8.0 | 0.00 | 0.30 | 0.00 | 71 | 1007.7 |
| 20260502040006 | 41 | 277 | 2.0 | 7.0 | 0.00 | 0.33 | 0.30 | 71 | 1007.7 |
| 20260502034504 | 41 | 279 | 1.0 | 6.0 | 0.00 | 0.33 | 0.30 | 73 | 1007.5 |
| 20260502033001 | 42 | 210 | 1.0 | 8.0 | 0.00 | 0.33 | 0.30 | 73 | 1007.5 |
| 20260502031559 | 42 | 262 | 2.0 | 8.0 | 0.00 | 0.33 | 0.30 | 74 | 1007.4 |
| 20260502030101 | 42 | 294 | 3.0 | 7.0 | 0.00 | 0.37 | 0.30 | 75 | 1007.3 |
| 20260502024554 | 42 | 275 | 0.0 | 7.0 | 0.00 | 0.37 | 0.30 | 76 | 1007.3 |
| 20260502023056 | 42 | 277 | 1.0 | 7.0 | 0.00 | 0.37 | 0.30 | 76 | 1007.3 |
| 20260502021554 | 42 | 244 | 1.0 | 9.0 | 0.00 | 0.37 | 0.30 | 76 | 1007.3 |
| 20260502020049 | 43 | 248 | 0.0 | 7.0 | 0.00 | 0.50 | 0.30 | 76 | 1007.3 |
| 20260502014546 | 43 | 267 | 1.0 | 7.0 | 0.00 | 0.50 | 0.30 | 77 | 1007.3 |
| 20260502013051 | 43 | 257 | 0.0 | 6.0 | 0.00 | 0.50 | 0.30 | 77 | 1007.3 |
| 20260502011544 | 43 | 281 | 0.0 | 0.0 | 0.00 | 0.50 | 0.30 | 78 | 1007.1 |
| 20260502010043 | 43 | 311 | 0.0 | 7.0 | 0.00 | 0.64 | 0.30 | 78 | 1007.0 |
| 20260502004544 | 43 | 292 | 1.0 | 7.0 | 0.00 | 0.64 | 0.30 | 78 | 1007.0 |
| 20260502003039 | 44 | 272 | 0.0 | 6.0 | 0.00 | 0.64 | 0.30 | 78 | 1006.8 |
| 20260502001537 | 44 | 286 | 1.0 | 9.0 | 0.00 | 0.64 | 0.30 | 78 | 1006.5 |
| 20260502000035 | 44 | 283 | 3.0 | 9.0 | 0.00 | 0.68 | 0.30 | 77 | 1006.3 |
| 20260501234530 | 44 | 293 | 3.0 | 10.0 | 0.00 | 0.68 | 0.30 | 77 | 1006.1 |
| 20260501233028 | 44 | 286 | 3.0 | 8.0 | 0.00 | 0.68 | 0.30 | 77 | 1005.9 |
| 20260501231525 | 44 | 266 | 1.0 | 9.0 | 0.00 | 0.68 | 0.30 | 77 | 1005.7 |
| 20260501230029 | 45 | 269 | 0.0 | 8.0 | 0.00 | 0.71 | 0.30 | 77 | 1005.7 |
| 20260501224520 | 45 | 309 | 3.0 | 8.0 | 0.00 | 0.71 | 0.30 | 77 | 1005.6 |
| 20260501223017 | 45 | 263 | 2.0 | 8.0 | 0.00 | 0.71 | 0.30 | 76 | 1005.3 |
| 20260501221516 | 45 | 286 | 5.0 | 17.0 | 0.00 | 0.71 | 0.30 | 75 | 1005.0 |
| 20260501220012 | 46 | 244 | 2.0 | 13.0 | 0.00 | 0.80 | 0.30 | 76 | 1004.9 |
| 20260501214509 | 46 | 250 | 4.0 | 11.0 | 0.00 | 0.80 | 0.30 | 75 | 1004.8 |
| 20260501213009 | 47 | 275 | 2.0 | 9.0 | 0.00 | 0.80 | 0.30 | 74 | 1004.7 |
| 20260501211508 | 47 | 236 | 2.0 | 12.0 | 0.00 | 0.80 | 0.30 | 76 | 1004.7 |
| 20260501210007 | 47 | 215 | 4.0 | 12.0 | 0.00 | 0.86 | 0.30 | 77 | 1004.5 |
| 20260501204505 | 47 | 281 | 0.0 | 11.0 | 0.00 | 0.86 | 0.30 | 77 | 1004.4 |
| 20260501203004 | 48 | 275 | 3.0 | 10.0 | 0.00 | 0.86 | 0.30 | 77 | 1004.4 |
| 20260501201502 | 47 | 301 | 3.0 | 9.0 | 0.00 | 0.86 | 0.30 | 78 | 1004.2 |
| 20260501200002 | 47 | 244 | 5.0 | 13.0 | 0.00 | 0.89 | 0.30 | 78 | 1004.2 |
| 20260501194500 | 47 | 282 | 4.0 | 12.0 | 0.00 | 0.89 | 0.30 | 78 | 1004.1 |
| 20260501193100 | 47 | 248 | 3.0 | 12.0 | 0.00 | 0.89 | 0.30 | 79 | 1003.9 |
| 20260501191559 | 47 | 309 | 3.0 | 14.0 | 0.00 | 0.89 | 0.30 | 80 | 1003.9 |
| 20260501190058 | 47 | 224 | 4.0 | 10.0 | 0.00 | 0.89 | 0.30 | 80 | 1003.8 |
| 20260501184558 | 47 | 281 | 2.0 | 10.0 | 0.00 | 0.89 | 0.30 | 81 | 1003.7 |
| 20260501183106 | 48 | 220 | 3.0 | 11.0 | 0.00 | 0.89 | 0.30 | 80 | 1003.5 |
| 20260501181556 | 48 | 272 | 5.0 | 13.0 | 0.00 | 0.89 | 0.30 | 79 | 1003.5 |
| 20260501180056 | 47 | 276 | 4.0 | 11.0 | 0.00 | 0.89 | 0.30 | 81 | 1003.3 |
| 20260501174553 | 48 | 281 | 4.0 | 11.0 | 0.00 | 0.89 | 0.30 | 80 | 1003.2 |
| 20260501173054 | 48 | 267 | 6.0 | 12.0 | 0.00 | 0.89 | 0.30 | 82 | 1003.1 |
| 20260501171557 | 47 | 298 | 3.0 | 11.0 | 0.00 | 0.89 | 0.30 | 83 | 1003.0 |